Location: Chuathbaluk
(61.5726°N, 159.2454°W)
Time: 17:11:44
(UTC+00:00)

ITAMSAT 1 - Pass Details

Date: 22 January 2021
Orbit: 784 x 796 km, 98.9° (Epoch: 05 March)

Event Time Altitude Azimuth Distance (km) Brightness Sun altitude
Rises 15:59:30 0° 22° (NNE) 3,291 11.2 -22.9°
Reaches altitude 10° 16:02:30 10° 40° (NE) 2,358 10.6 -22.6°
Maximum altitude 16:06:13 20° 85° (E) 1,784 10.4 -22.1°
Drops below altitude 10° 16:09:55 10° 131° (SE) 2,349 10.8 -21.7°
Sets 16:12:53 0° 149° (SSE) 3,274 11.3 -21.3°
